Weather in Qingdao

China     36˚09′00″N   120˚28′17″E
temp.,
°C
wind,
m/s
gust,
m/s
humid.,
%
clouds,
%
prec.,
mm/h
press.,
hPa
HPBL,
m
29 november, sun
sun2923:00+1˚nw354982 0.0 1032613
02:00nw235441 0.0 1032287
05:00nnw12600 0.0 1032206
08:00nw12580 0.0 1033206
11:00+4˚nw24380 0.0 1033863
14:00+5˚nw35370 0.0 10311211
17:00+4˚nw35450 0.0 1033925
20:00+2˚nnw24540 0.0 1035342
30 november, mon
mon3023:00+2˚n12570 0.0 1036135
02:00+1˚nw12590 0.0 1035164
05:00nw12580 0.0 1036149
08:00+1˚nw13540 0.0 1037214
11:00+4˚nw24430 0.0 1037925
14:00+6˚nnw34401 0.0 10361349
17:00+5˚nnw234891 0.0 10371058
20:00+4˚n244695 0.0 1038450
1 december, tue
tue123:00+3˚nne2446100 0.1 1038412
02:00+2˚nne254884 0.1 1038316
05:00+2˚nne234986 0.0 1037259
08:00+2˚nne234893 0.0 1037224
11:00+4˚ne1243100 0.0 1037522
14:00+6˚ne1146100 0.0 1035866
17:00+5˚ne2253100 0.0 1034662
20:00+4˚ne1153100 0.0 1034466
2 december, wed
wed223:00+3˚nnw2366100 0.1 1034632
02:00+1˚nnw2287100 0.5 1034281
05:00+1˚nnw238594 0.0 1033256
08:00+1˚n237886 0.0 1034263
11:00+4˚nw346689 0.0 1034733
14:00+5˚nw466595 0.0 1032874
17:00+4˚nnw4770100 0.0 1033912
20:00+3˚nnw4871100 0.1 1034831
3 december, thu
thu323:00+2˚nnw3974100 0.0 1035755
02:00+1˚nnw267781 0.0 1035434
05:00nnw25721 0.0 1035381
08:00+1˚nnw39572 0.0 1036708
11:00+4˚nnw5856100 0.0 10361333
14:00+4˚nnw6844100 0.1 10341357
17:00+1˚nnw51047100 0.0 1035990
20:00nnw395477 0.0 1036943